Alexander City, AL

2:08 AM CDT on March 25, 2017 (GMT -0500)
Russell

Weather History for KALX - March, 2014

Change the Weather History Date:

Saturday, March 29, 2014

  Actual Average (KAUO) Record (KAUO)
Temperature  
Mean Temperature 61 °F -  
Max Temperature 70 °F 73 °F 86 °F (2007)
Min Temperature 51 °F 46 °F 29 °F (1978)
Degree Days  
Heating Degree Days 4    
Growing Degree Days 11 (Base 50)    
Moisture  
Dew Point 52 °F    
Average Humidity 70    
Maximum Humidity 86    
Minimum Humidity 48    
Precipitation  
Precipitation 0.15 in - - ()
Sea Level Pressure  
Sea Level Pressure 29.94 in    
Wind  
Wind Speed 8 mph (WNW)    
Max Wind Speed 20 mph    
Max Gust Speed 33 mph    
Visibility 8 miles    
Events Rain , Thunderstorm    
Averages and records for this station are not official NWS values.
T = Trace of Precipitation, MM = Missing Value Source: NWS Daily Summary

Daily Weather History Graph

Daily Weather History Graph

Search for Another Location

Airport or City:

Trip Planner

Search our weather history database for the weather conditions in past years. The results will help you decide how hot, cold, wet, or windy it might be!

Date:

Astronomy

Mar. 29, 2014 Rise Set
Actual Time 6:35 AM CDT 7:01 PM CDT
Civil Twilight 6:10 AM CDT 7:26 PM CDT
Nautical Twilight 5:41 AM CDT 7:55 PM CDT
Astronomical Twilight 5:12 AM CDT 8:25 PM CDT
Moon 5:40 AM CDT (3/29) 6:08 PM CDT (3/29)
Length of Visible Light 13h 15m
Length of Day
12h 26m
Waning Crescent, 2% of the Moon is Illuminated
Mar 29
Waning Crescent
Mar 30
New
Apr 7
First Quarter
Apr 15
Full
Apr 22
Last Quarter

Hourly Weather History & Observations

Time (CDT) Temp. Dew Point Humidity Pressure Visibility Wind Dir Wind Speed Gust Speed Precip Events Conditions
12:15 AM 62.8 °F 58.1 °F 85% 29.93 in 10.0 mi ESE 4.6 mph - N/A   Overcast
12:35 AM 62.8 °F 58.1 °F 85% 29.93 in 10.0 mi ESE 3.5 mph - N/A   Light Drizzle
1:15 AM 62.8 °F 58.1 °F 85% 29.94 in 7.0 mi Calm Calm - N/A Rain Rain
1:35 AM 61.9 °F 57.4 °F 85% 29.92 in 7.0 mi Calm Calm - N/A Rain Light Rain
1:55 AM 61.9 °F 57.4 °F 85% 29.90 in 5.0 mi Calm Calm - N/A   Haze
2:15 AM 61.9 °F 57.6 °F 86% 29.89 in 4.0 mi Calm Calm - N/A   Overcast
2:35 AM 61.7 °F 57.4 °F 86% 29.88 in 2.5 mi Calm Calm - N/A   Drizzle
2:55 AM 61.7 °F 57.4 °F 86% 29.87 in 1.2 mi Calm Calm - N/A   Haze
3:15 AM 61.7 °F 57.6 °F 86% 29.88 in 0.8 mi Calm Calm - N/A   Overcast
3:35 AM 61.7 °F 57.6 °F 86% 29.88 in 1.0 mi Calm Calm - N/A   Drizzle
3:55 AM 61.7 °F 57.6 °F 86% 29.89 in 0.8 mi Calm Calm - 0.01 in Thunderstorm Overcast
4:15 AM 61.7 °F 57.6 °F 86% 29.90 in 0.8 mi Calm Calm - N/A Thunderstorm Overcast
4:35 AM 62.6 °F 58.3 °F 86% 29.93 in 3.0 mi SW 8.1 mph - 0.01 in Rain , Thunderstorm Thunderstorms and Rain
4:55 AM 61.9 °F 57.7 °F 86% 29.93 in 5.0 mi South 3.5 mph - 0.06 in Rain Rain
5:15 AM 61.7 °F 57.4 °F 86% 29.90 in 5.0 mi ESE 5.8 mph - 0.05 in Rain Rain
5:35 AM 61.7 °F 57.4 °F 86% 29.83 in 7.0 mi SE 10.4 mph - 0.08 in Rain Light Rain
5:55 AM 61.7 °F 57.4 °F 86% 29.80 in 10.0 mi SE 9.2 mph 16.1 mph 0.08 in Rain Light Rain
6:15 AM 61.2 °F 57.0 °F 86% 29.83 in 10.0 mi SSE 5.8 mph - N/A   Overcast
6:35 AM 61.0 °F 56.8 °F 86% 29.83 in 10.0 mi SSW 11.5 mph 16.1 mph N/A   Overcast
6:55 AM 60.8 °F 56.5 °F 86% 29.85 in 10.0 mi South 11.5 mph 18.4 mph N/A   Overcast
7:15 AM 61.0 °F 56.7 °F 86% 29.85 in 10.0 mi South 8.1 mph 18.4 mph N/A   Overcast
7:35 AM 61.7 °F 57.2 °F 85% 29.85 in 10.0 mi South 8.1 mph - N/A   Overcast
7:55 AM 61.7 °F 57.2 °F 85% 29.84 in 10.0 mi South 6.9 mph - N/A   Overcast
8:15 AM 61.7 °F 56.5 °F 83% 29.85 in 10.0 mi SSW 8.1 mph 17.3 mph N/A   Overcast
8:35 AM 61.9 °F 56.5 °F 82% 29.86 in 10.0 mi SSW 10.4 mph - N/A   Overcast
8:55 AM 62.8 °F 57.2 °F 82% 29.85 in 7.0 mi SSW 9.2 mph - N/A   Light Drizzle
9:15 AM 61.9 °F 56.7 °F 83% 29.85 in 5.0 mi SW 8.1 mph - N/A   Light Drizzle
9:35 AM 62.8 °F 57.6 °F 83% 29.85 in 4.0 mi SW 9.2 mph - N/A   Haze
9:55 AM 62.8 °F 57.4 °F 82% 29.85 in 10.0 mi SW 13.8 mph 17.3 mph N/A   Overcast
10:15 AM 62.8 °F 57.2 °F 82% 29.86 in 10.0 mi WSW 10.4 mph 16.1 mph N/A   Overcast
10:35 AM 62.8 °F 56.8 °F 81% 29.86 in 10.0 mi WSW 10.4 mph 18.4 mph N/A   Overcast
10:55 AM 63.1 °F 57.0 °F 80% 29.86 in 7.0 mi WSW 9.2 mph - N/A   Overcast
11:15 AM 65.5 °F 57.4 °F 75% 29.86 in 10.0 mi West 11.5 mph 21.9 mph N/A   Overcast
11:35 AM 65.5 °F 56.5 °F 73% 29.87 in 10.0 mi West 9.2 mph - N/A   Overcast
11:55 AM 68.5 °F 57.4 °F 67% 29.88 in 10.0 mi West 18.4 mph 21.9 mph N/A   Mostly Cloudy
12:15 PM 70.7 °F 58.1 °F 64% 29.87 in 10.0 mi West 12.7 mph 23.0 mph N/A   Mostly Cloudy
12:35 PM 69.4 °F 57.6 °F 66% 29.88 in 10.0 mi West 10.4 mph 23.0 mph N/A   Mostly Cloudy
12:55 PM 70.7 °F 58.1 °F 64% 29.88 in 10.0 mi NW 9.2 mph 25.3 mph N/A   Mostly Cloudy
1:15 PM 70.7 °F 57.4 °F 63% 29.88 in 10.0 mi WNW 15.0 mph 21.9 mph N/A   Mostly Cloudy
1:35 PM 70.7 °F 55.8 °F 59% 29.88 in 10.0 mi WNW 15.0 mph 19.6 mph N/A   Mostly Cloudy
1:55 PM 70.7 °F 55.9 °F 59% 29.88 in 10.0 mi WSW 13.8 mph 21.9 mph N/A   Mostly Cloudy
2:15 PM 70.7 °F 55.9 °F 59% 29.88 in 10.0 mi West 18.4 mph 33.4 mph N/A   Mostly Cloudy
2:35 PM 65.5 °F 54.7 °F 68% 29.90 in 10.0 mi WNW 11.5 mph 25.3 mph N/A   Mostly Cloudy
2:55 PM 68.0 °F 55.8 °F 65% 29.91 in 10.0 mi NW 13.8 mph 21.9 mph N/A   Mostly Cloudy
3:15 PM 65.5 °F 50.5 °F 58% 29.92 in 10.0 mi WNW 15.0 mph 29.9 mph N/A   Mostly Cloudy
3:35 PM 67.5 °F 49.3 °F 52% 29.93 in 10.0 mi NNW 17.3 mph 32.2 mph N/A   Mostly Cloudy
3:55 PM 65.5 °F 46.8 °F 51% 29.93 in 10.0 mi NW 18.4 mph 23.0 mph N/A   Mostly Cloudy
4:15 PM 65.3 °F 45.0 °F 48% 29.94 in 10.0 mi NW 16.1 mph 25.3 mph N/A   Mostly Cloudy
4:35 PM 63.0 °F 44.4 °F 51% 29.95 in 10.0 mi NNW 17.3 mph 26.5 mph N/A   Mostly Cloudy
4:55 PM 65.5 °F 46.4 °F 50% 29.95 in 10.0 mi NNW 13.8 mph 17.3 mph N/A   Mostly Cloudy
5:15 PM 62.6 °F 44.2 °F 51% 29.97 in 10.0 mi NNW 17.3 mph 28.8 mph N/A   Mostly Cloudy
5:35 PM 61.7 °F 43.9 °F 52% 29.98 in 10.0 mi NNW 17.3 mph 26.5 mph N/A   Overcast
5:55 PM 60.3 °F 43.0 °F 53% 30.00 in 10.0 mi NNW 16.1 mph 23.0 mph N/A   Mostly Cloudy
6:15 PM 60.3 °F 44.8 °F 57% 30.01 in 10.0 mi NW 13.8 mph 21.9 mph N/A   Overcast
6:35 PM 58.1 °F 43.0 °F 57% 30.02 in 10.0 mi NW 12.7 mph 19.6 mph N/A   Overcast
6:55 PM 57.7 °F 41.7 °F 55% 30.03 in 10.0 mi NNW 19.6 mph 26.5 mph N/A   Overcast
7:15 PM 57.7 °F 42.4 °F 57% 30.04 in 10.0 mi NNW 12.7 mph 23.0 mph N/A   Overcast
7:35 PM 57.7 °F 42.1 °F 56% 30.05 in 10.0 mi NW 18.4 mph 26.5 mph N/A   Overcast
7:55 PM 56.1 °F 40.8 °F 57% 30.06 in 10.0 mi NNW 18.4 mph 25.3 mph N/A   Overcast
8:15 PM 55.4 °F 38.7 °F 53% 30.08 in 10.0 mi NNW 15.0 mph 29.9 mph N/A   Overcast
8:35 PM 55.4 °F 39.2 °F 54% 30.08 in 10.0 mi NNW 18.4 mph 21.9 mph N/A   Overcast
8:55 PM 55.4 °F 39.6 °F 55% 30.09 in 10.0 mi NNW 15.0 mph 19.6 mph N/A   Overcast
9:15 PM 55.4 °F 39.6 °F 55% 30.10 in 10.0 mi NW 13.8 mph 19.6 mph N/A   Overcast
9:35 PM 55.4 °F 39.4 °F 55% 30.10 in 10.0 mi NNW 13.8 mph 19.6 mph N/A   Scattered Clouds
9:55 PM 55.4 °F 39.7 °F 56% 30.11 in 10.0 mi NNW 9.2 mph 19.6 mph N/A   Mostly Cloudy
10:15 PM 55.4 °F 40.1 °F 56% 30.11 in 10.0 mi NW 11.5 mph - N/A   Overcast
10:35 PM 55.4 °F 41.0 °F 58% 30.11 in 10.0 mi NNW 9.2 mph - N/A   Overcast
10:55 PM 55.4 °F 41.4 °F 59% 30.11 in 10.0 mi NNW 12.7 mph 18.4 mph N/A   Overcast
11:15 PM 55.4 °F 41.9 °F 60% 30.11 in 10.0 mi NW 10.4 mph - N/A   Overcast
11:35 PM 52.7 °F 39.7 °F 61% 30.12 in 10.0 mi NNW 11.5 mph 18.4 mph N/A   Mostly Cloudy
11:55 PM 51.8 °F 39.9 °F 64% 30.12 in 10.0 mi NNW 6.9 mph - N/A   Mostly Cloudy